FW1318 Weather Reports


time (UTC)temp
F
wind
direction
speed
knots
gust
knots
rain 1hr
in
rain 24hr
in
rain mn
in
humidity
%
barometer
mb
20260504180055 65 0 0.0 0.9 0.00 0.00 0.00 79 1006.1
20260504174601 65 0 0.0 0.0 0.00 0.00 0.00 78 1006.1
20260504173056 66 0 0.0 0.0 0.00 0.00 0.00 75 1006.3
20260504171555 67 0 0.0 3.5 0.00 0.00 0.00 72 1006.0
20260504140108 71 78 0.9 3.5 0.00 0.00 0.00 56 1007.8
20260504110118 59 0 0.0 0.0 0.00 0.00 0.00 79 1008.8
20260504090117 61 130 0.0 0.9 0.00 0.00 0.00 72 1008.9
20260504081556 63 0 0.0 0.9 0.00 0.00 0.00 69 1008.6
20260504044601 68 119 0.9 7.0 0.00 0.00 0.00 56 1008.3
20260504043054 68 106 0.9 6.1 0.00 0.00 0.00 55 1008.8
20260504041553 68 102 0.9 7.0 0.00 0.00 0.00 55 1009.2
20260504040103 69 288 0.0 4.3 0.00 0.00 0.00 54 1009.1
20260504034557 68 0 0.0 5.2 0.00 0.00 0.00 55 1009.8
20260504033104 67 106 0.0 1.7 0.00 0.00 0.00 55 1009.9
20260504031556 67 0 0.0 4.3 0.00 0.00 0.00 54 1009.9
20260504030054 67 0 0.0 0.9 0.00 0.00 0.00 54 1009.7
20260504024601 68 94 0.0 3.5 0.00 0.00 0.00 53 1009.5
20260504023057 68 0 0.0 0.9 0.00 0.00 0.00 52 1009.6
20260504021554 68 0 0.0 0.9 0.00 0.00 0.00 52 1009.4
20260504020055 69 0 0.0 0.0 0.00 0.00 0.00 50 1009.4
20260504014552 70 0 0.0 0.0 0.00 0.00 0.00 48 1009.2
20260504013101 71 0 0.0 1.7 0.00 0.00 0.00 47 1009.1
20260504011555 72 0 0.0 0.9 0.00 0.00 0.00 46 1009.1
20260504010101 73 0 0.0 1.7 0.00 0.00 0.00 44 1009.1
20260504004602 74 0 0.0 3.5 0.00 0.00 0.00 42 1009.0
20260504003055 75 0 0.0 3.5 0.00 0.00 0.00 42 1009.1
20260504001612 76 88 0.9 4.3 0.00 0.00 0.00 39 1009.0
20260504000056 77 74 0.0 7.0 0.00 0.00 0.00 38 1009.1
20260503234556 79 98 1.7 6.1 0.00 0.00 0.00 35 1009.2
20260503233059 79 44 0.9 9.6 0.00 0.00 0.00 34 1009.2
20260503231556 80 99 1.7 13.9 0.00 0.00 0.00 33 1009.3
20260503230055 80 150 2.6 11.3 0.00 0.00 0.00 33 1009.4
20260503224559 80 162 3.5 11.3 0.00 0.00 0.00 33 1009.5
20260503223057 80 54 3.5 13.0 0.00 0.00 0.00 31 1009.5
20260503221556 80 115 2.6 8.7 0.00 0.00 0.00 30 1009.8
20260503220113 80 84 2.6 9.6 0.00 0.00 0.00 31 1010.0
20260503214555 80 62 3.5 8.7 0.00 0.00 0.00 32 1010.0
20260503213100 79 98 1.7 13.0 0.00 0.00 0.00 35 1009.9
20260503211608 80 91 0.0 13.0 0.00 0.00 0.00 38 1010.1
20260503210059 78 90 2.6 14.8 0.00 0.00 0.00 36 1010.4
20260503204602 78 122 2.6 8.7 0.00 0.00 0.00 38 1010.8
20260503203057 79 100 1.7 7.8 0.00 0.00 0.00 36 1011.1
20260503201554 77 307 1.7 7.8 0.00 0.00 0.00 36 1011.4
20260503200056 77 134 3.5 13.9 0.00 0.00 0.00 35 1011.7
20260503194557 76 65 3.5 10.4 0.00 0.00 0.00 36 1012.2
20260503193113 76 87 1.7 8.7 0.00 0.00 0.00 38 1012.6
20260503191600 75 83 2.6 8.7 0.00 0.00 0.00 38 1012.9
20260503190054 74 69 2.6 7.8 0.00 0.00 0.00 37 1013.3
20260503184554 73 68 3.5 10.4 0.00 0.00 0.00 36 1013.6
20260503183059 73 47 1.7 8.7 0.00 0.00 0.00 38 1014.0
20260503181620 72 80 1.7 7.8 0.00 0.00 0.00 41 1014.7